Regional Weather Roundup
Issued by NWS

Home | Current Version | Previous Version | Text Only | Print | Product List | Glossary Off
Versions: 1 2 3 4 5 6 7 8 9 10 11 12 13 14 15 16 17 18 19 20 21 22 23 24 25 26 27 28 29 30 31 32 33 34 35 36 37 38 39 40 41 42 43 44 45 46 47 48 49 50

000
ASUS43 KIND 120309
RWRIN

WEATHER ROUNDUP FOR INDIANA
NATIONAL WEATHER SERVICE INDIANAPOLIS IN
1000 PM EST THU FEB 11 2016

NOTE: "FAIR" INDICATES FEW OR NO CLOUDS BELOW 12,000 FEET WITH NO
SIGNIFICANT WEATHER AND/OR OBSTRUCTIONS TO VISIBILITY.

* - STATION DOES NOT REPORT WEATHER SUCH AS PRECIPITATION OR FOG.

+ - STATION NOT QUALITY CONTROLLED BY THE NATIONAL WEATHER SERVICE.
    USE DATA WITH CAUTION...ESPECIALLY DEWPOINT AND RELATIVE
    HUMIDITY OBSERVATIONS.

INZ001>003-010>013-019-020-120400-
NORTHWEST INDIANA

CITY           SKY/WX    TMP DP  RH WIND       PRES   REMARKS
GARY /AIRPORT/ CLEAR     14   7  73 SW5       30.29S WCI   6
KNOX *+        CLOUDY    12   9  85 CALM      30.28S
LA PORTE +     CLOUDY     5   2  90 CALM      30.28S
MICHIGAN CITY+ CLOUDY     9   3  78 CALM      30.28F
MONTICELLO +   PTCLDY    19   7  61 W3        30.28F
RENSSELAER +   CLOUDY    21   9  58 SW3       30.28F
VALPARAISO     PTCLDY    11   6  81 CALM      30.27F

$$

LMZ046-743>745-120400-
SOUTHERN LAKE MICHIGAN

STATION/POSITION TIME  TEMP    WIND        PRES    WAVE
                       AIR SEA DIR/SP/G            HT
                 (UTC) (F)     (DEG/KT/KT) (MB)    (FT)
BURNS HARBOR     0200   18     180/  8/ 10 1025.7F
MICHIGAN CITY    0200   16     140/  6/  7   N/A

$$

INZ004-005-014>016-021>024-120400-
NORTH CENTRAL INDIANA

CITY           SKY/WX    TMP DP  RH WIND       PRES   REMARKS
GOSHEN         PTCLDY     8   3  80 CALM      30.27S
LOGANSPORT +   CLOUDY    18   7  62 SW3       30.29S
PERU/GRISSOM   CLOUDY    15  10  78 S6        30.26F WCI   6
ROCHESTER +    CLOUDY    14   5  67 CALM      30.28S
SOUTH BEND     CLOUDY     2  -2  83 CALM      30.27F
WARSAW +       CLEAR     10   7  85 CALM      30.27S

$$

INZ006>009-017-018-025>027-120400-
NORTHEAST INDIANA

CITY           SKY/WX    TMP DP  RH WIND       PRES   REMARKS
ANGOLA *+      MOCLDY    14   3  62 CALM      30.24R
AUBURN +       PTCLDY    16   9  73 W5        30.27S WCI   9
FORT WAYNE     PTCLDY    15   8  73 W6        30.28S WCI   6
HUNTINGTON +   CLOUDY    13   6  73 CALM      30.28S

$$

INZ028-029-035-036-043>045-051>053-120400-
WEST CENTRAL INDIANA

CITY           SKY/WX    TMP DP  RH WIND       PRES   REMARKS
GREENCASTLE +  CLOUDY    21   9  58 CALM      30.29S
LAFAYETTE      PTCLDY    20  10  65 CALM      30.30F
TERRE HAUTE    PTCLDY    22  15  75 CALM      30.30F

$$

INZ030>032-037>040-046>048-054>057-064-065-120400-
CENTRAL INDIANA

CITY           SKY/WX    TMP DP  RH WIND       PRES   REMARKS
FRANKFORT +    CLOUDY    20   5  51 W5        30.29F WCI  14
GREENWOOD *+   PTCLDY    21  10  63 S6        30.29F WCI  14
INDIANAPOLIS   MOCLDY    21  10  62 CALM      30.27F
-EAGLE CREEK   PTCLDY    22  11  62 CALM      30.28F
KOKOMO *+      PTCLDY    16   7  67 SW3       30.28S
MARION +       CLOUDY    13   5  68 CALM      30.28F
MT COMFORT *+  CLOUDY    19  10  68 S5        30.28F WCI  13
SHELBYVILLE    PTCLDY    20  11  68 SW6       30.29S WCI  12
ZIONSVILLE +   MOCLDY    20  10  63 W3        30.28F

$$

INZ033-034-041-042-049-050-058-059-120400-
EAST CENTRAL INDIANA

CITY           SKY/WX    TMP DP  RH WIND       PRES   REMARKS
MUNCIE         PTCLDY    18   8  65 S3        30.28S

$$

INZ060-061-067>069-081>083-085>088-120400-
SOUTHWEST INDIANA

CITY           SKY/WX    TMP DP  RH WIND       PRES   REMARKS
EVANSVILLE     CLOUDY    29  13  51 NE5       30.31S WCI  24
HUNTINGBURG *+ CLOUDY    27  10  50 NE6       30.30S WCI  20
WASHINGTON +   MOCLDY    25  10  52 N3        30.30S

$$

INZ062-063-066-070>080-084-089>092-120400-
SOUTH CENTRAL AND SOUTHEAST INDIANA

CITY           SKY/WX    TMP DP  RH WIND       PRES   REMARKS
BEDFORD +      MOCLDY    23  14  68 E5        30.29F WCI  17
BLOOMINGTON    PTCLDY    23  10  57 CALM      30.28F
MADISON *+     CLOUDY    23   9  54 CALM      30.31F
NORTH VERNON + PTCLDY    21   7  53 CALM      30.31F
SEYMOUR +      CLOUDY    25  10  54 E5        30.31F WCI  19

$$




USA.gov is the U.S. government's official web portal to all federal, state and local government web resources and services.